[[{"header":{"parameterUnit":"m.s-1","parameterCategory":1,"la1":30.2991,"la2":30.254,"lo1":-89.0895,"lo2":-89.0444,"dy":0.0017,"dx":0.0017,"nx":28,"ny":28,"refTime":"2025-03-25T03:00:00:Z","depth":0,"parameterNumber":2,"parameterNumberName":"U-component_of_WINDS"},"data":[0,0,0,0,0,0,0,0,0,0,0,0,0,0,0,0,0,0,0,0,0,0,0,0,0,0,0,0,0,0,0,0,0,0,0,0,0,0,0,0,0,0,0,0,0,0,0,0,0,0,0,0,0,0,0,0,0,0,-1.9853,-1.9853,0,-1.9855,-1.9855,-1.9855,-1.9795,-1.9794,-1.9792,-1.9791,-1.9793,-1.9795,-1.9796,0,0,0,0,0,0,0,0,0,0,0,0,0,-1.9799,-1.9801,-1.9853,-1.9853,-1.9853,-1.9855,-1.9855,-1.9855,-1.9796,-1.9794,-1.9792,-1.979,-1.9793,-1.9794,-1.9796,0,0,0,0,0,0,0,0,0,0,0,0,0,-1.9814,-1.9801,-1.9853,-1.9824,-1.9821,-1.9855,-1.9855,-1.9855,-1.9796,-1.9794,-1.9791,-1.9789,-1.9792,-1.9794,-1.9797,-1.9859,0,0,-1.9804,-1.9805,0,0,0,0,0,0,0,0,-1.9813,-1.9816,-1.9828,-1.9826,-1.9823,-1.9823,-1.9837,-1.9857,-1.9797,-1.9806,-1.9791,-1.9788,-1.9805,-1.9806,-1.9812,-1.9859,-1.986,-1.9804,-1.9805,-1.9806,-1.9807,0,0,0,0,0,0,0,-1.9812,-1.9816,-1.9854,-1.9828,-1.9825,-1.9811,-1.981,-1.9841,-1.9819,-1.9805,-1.98,-1.9801,-1.9803,-1.981,-1.9811,-1.986,-1.9804,-1.9806,-1.9807,-1.9808,-1.9961,-1.9964,0,0,0,0,0,0,-1.9815,-1.9815,-1.9854,-1.9854,-1.9812,-1.9814,-1.9813,-1.9825,-1.9818,-1.9815,-1.9803,-1.9798,-1.9807,-1.9809,-1.9811,-1.9885,-1.9806,-1.9809,-1.981,-1.9958,-1.9962,-1.9964,0,0,0,0,0,0,-1.9814,-1.9819,-1.9854,-1.9834,-1.9837,-1.9817,-1.9831,-1.9826,-1.9833,-1.9817,-1.9813,-1.9814,-1.9805,-1.9808,-1.9848,-1.9884,-1.981,-1.9812,-1.9955,-1.9959,-1.9963,-2.0032,0,0,0,0,0,0,-1.9813,-1.9819,-1.9842,-1.9835,-1.9838,-1.989,-1.9833,-1.9828,-1.9837,-1.9831,-1.9826,-1.9823,-1.9803,-1.9845,-1.9851,-1.9886,-1.9814,-1.9952,-1.9957,-1.9962,-2.0026,-2.0038,-2.0048,0,0,0,0,0,-1.9811,-1.9861,-1.9844,-1.9849,-1.9866,-1.9892,-1.9894,-1.9871,-1.984,-1.9863,-1.9854,-1.9823,-1.988,-1.985,-1.9855,-1.9892,-1.995,-1.9956,-1.9961,-2.0022,-2.0036,-2.0047,0,0,0,0,0,0,-1.9872,-1.9859,-1.984,-1.9888,-1.9892,-1.9882,-1.991,-1.9886,-1.9898,-1.9892,-1.9862,-1.9861,-1.9907,-1.9904,-1.987,-1.9953,-1.9909,-1.9917,-1.9953,-1.9966,-1.9977,-1.9976,-1.9816,0,0,0,0,0,-1.9892,-1.9914,-1.9901,-1.9946,-1.9949,-1.993,-1.994,-1.9922,-1.9924,-1.9925,-1.9918,-1.9922,-1.9941,-1.9954,-1.997,-2.0027,-2.0025,-2.0055,-2.0066,-2.0074,-2.0081,-2.0111,-2.0125,-1.9984,-1.9984,-1.9984,0,0,-1.9931,-1.9927,-1.9942,-1.9958,-1.9958,-1.9982,-1.9931,-1.9958,-1.9976,-1.9929,-1.9967,-1.9963,-1.9965,-2.0014,-2.0036,-2.0013,-2.012,-2.0082,-2.0089,-2.009,-2.0119,-2.0132,-2.0144,-1.9988,-1.9987,-1.9987,0,0,-2.0016,-2.0015,-2.0052,-2.0054,-2.0056,-2.0044,-2.0053,-2.0048,-2.0043,-2.0081,-2.0047,-2.0069,-2.0101,-2.0105,-2.0111,-2.0201,-2.0173,-2.0207,-2.0262,-2.0292,-2.0303,-2.0313,-2.0345,-2.0357,-2.0214,-2.0214,-2.0214,0,-2.0064,-2.0098,-2.0074,-2.0104,-2.0112,-2.0073,-2.0111,-2.0115,-2.0122,-2.0129,-2.0104,-2.0146,-2.0145,-2.0194,-2.0217,-2.0223,-2.0233,-2.0206,-2.0304,-2.0313,-2.0322,-2.0352,-2.0364,-2.0218,-2.0218,-2.0217,-2.0217,0,-2.0159,-2.0183,-2.0213,-2.0222,-2.0234,-2.0268,-2.025,-2.0265,-2.0247,-2.0238,-2.0278,-2.0276,-2.0292,-2.0303,-2.0285,-2.0351,-2.0337,-2.0309,-2.0263,-2.034,-2.0367,-2.0379,-2.0224,-2.0222,-2.0221,-2.022,0,0,-2.0277,-2.0275,-2.0286,-2.029,-2.0292,-2.0311,-2.0344,-2.036,-2.0374,-2.0382,-2.0409,-2.044,-2.0414,-2.0421,-2.0404,-2.0431,-2.0503,-2.04,-2.0399,-2.0418,-2.0576,-2.0596,-2.061,-2.0486,-2.0488,-2.049,-2.0576,0,-2.0358,-2.0414,-2.0395,-2.0452,-2.0475,-2.044,-2.0469,-2.0474,-2.0468,-2.0487,-2.048,-2.0502,-2.0466,-2.0471,-2.0496,-2.0489,-2.0534,-2.0483,-2.0511,-2.0512,-2.0509,-2.0625,-2.0645,-2.0726,-2.0587,-2.0588,-2.059,0,-2.0459,-2.0472,-2.0531,-2.0531,-2.054,-2.0566,-2.0581,-2.06,-2.0605,-2.0599,-2.0609,-2.0587,-2.0621,-2.0578,-2.0625,-2.059,-2.0601,-2.06,-2.0603,-2.0603,-2.0554,-2.0627,-2.0751,-2.0763,-2.0607,-2.0605,-2.0604,0,-2.0539,-2.0571,-2.0611,-2.0617,-2.0617,-2.0637,-2.0638,-2.0641,-2.0653,-2.0666,-2.0674,-2.0691,-2.07,-2.0715,-2.0699,-2.0669,-2.0748,-2.0703,-2.0743,-2.0744,-2.0759,-2.0758,-2.0886,-2.077,-2.0769,-2.0769,-2.0769,0,-2.063,-2.0668,-2.0647,-2.0672,-2.0714,-2.0693,-2.0735,-2.0733,-2.0737,-2.0761,-2.0733,-2.0756,-2.0734,-2.0756,-2.0745,-2.0785,-2.079,-2.0786,-2.0782,-2.0787,-2.0788,-2.0792,-2.0786,-2.0772,-2.0772,-2.0771,-2.0771,0,-2.0724,-2.0713,-2.0754,-2.0753,-2.0753,-2.0784,-2.0783,-2.0806,-2.0799,-2.0831,-2.0837,-2.0826,-2.085,-2.0837,-2.0862,-2.0854,-2.0907,-2.0896,-2.0905,-2.0901,-2.0941,-2.0937,-2.1076,-2.1093,-2.0967,-2.0968,-2.0969,0,-2.0782,-2.0811,-2.0813,-2.0827,-2.0831,-2.0854,-2.0867,-2.0849,-2.0863,-2.0874,-2.0896,-2.0918,-2.0935,-2.0976,-2.0971,-2.0991,-2.0979,-2.1027,-2.0982,-2.0987,-2.0979,-2.0977,-2.0979,-2.1035,-2.1036,-2.1037,-2.1038,0,-2.0886,-2.088,-2.0898,-2.0917,-2.0933,-2.0946,-2.0956,-2.097,-2.0953,-2.097,-2.0996,-2.1009,-2.1036,-2.1059,-2.1077,-2.1078,-2.1056,-2.1053,-2.1063,-2.1068,-2.1071,-2.1069,-2.0927,-2.1049,-2.1048,-2.1047,-2.1047,-2.1046,-2.0963,-2.0987,-2.0993,-2.1016,-2.1023,-2.1035,-2.1057,-2.1054,-2.1074,-2.1095,-2.1084,-2.1114,-2.1121,-2.1143,-2.1149,-2.1172,-2.1153,-2.1168,-2.1171,-2.1175,-2.118,-2.107,-2.1176,-2.1175,-2.1175,-2.1175,-2.1174,0,-2.1064,-2.1067,-2.1089,-2.1106,-2.1124,-2.1103,-2.1115,-2.1132,-2.1159,-2.1168,-2.1186,-2.1216,-2.1239,-2.1237,-2.1259,-2.1278,-2.1269,-2.1284,-2.1282,-2.1283,-2.1196,-2.1185,-2.1292,-2.1292,-2.1292,-2.1292,-2.1292,-2.1292,-2.1118,-2.1159,-2.1154,-2.1198,-2.1201,-2.123,-2.1239,-2.125,-2.1258,-2.1293,-2.1312,-2.1311,-2.1317,-2.1339,-2.136,-2.1359,-2.1367,-2.1387,-2.1382,-2.13,-2.1289,-2.1277,-2.1266,-2.1389,-2.1389,-2.1466,-2.1467,-2.1467]},{"header":{"parameterUnit":"m.s-1","parameterCategory":1,"la1":30.2991,"la2":30.254,"lo1":-89.0895,"lo2":-89.0444,"dy":0.0017,"dx":0.0017,"nx":28,"ny":28,"refTime":"2025-03-25T03:00:00:Z","depth":0,"parameterNumber":3,"parameterNumberName":"V-component_of_WINDS"},"data":[0,0,0,0,0,0,0,0,0,0,0,0,0,0,0,0,0,0,0,0,0,0,0,0,0,0,0,0,0,0,0,0,0,0,0,0,0,0,0,0,0,0,0,0,0,0,0,0,0,0,0,0,0,0,0,0,0,0,1.3736,1.3735,0,1.3662,1.3662,1.3661,1.3653,1.3653,1.3654,1.3655,1.3568,1.3565,1.3562,0,0,0,0,0,0,0,0,0,0,0,0,0,1.3862,1.386,1.3736,1.3735,1.3734,1.3663,1.3661,1.366,1.3653,1.3653,1.3654,1.3655,1.3569,1.3566,1.3562,0,0,0,0,0,0,0,0,0,0,0,0,0,1.3799,1.3859,1.3736,1.3722,1.372,1.3663,1.3661,1.366,1.3652,1.3653,1.3655,1.3656,1.357,1.3566,1.3561,1.351,0,0,1.3548,1.3546,0,0,0,0,0,0,0,0,1.3803,1.3795,1.3725,1.3723,1.3721,1.3668,1.3674,1.3609,1.3652,1.3678,1.3655,1.3656,1.36,1.3593,1.3576,1.3506,1.3502,1.3547,1.3544,1.3542,1.3541,0,0,0,0,0,0,0,1.3807,1.3798,1.3707,1.3724,1.3721,1.3717,1.3709,1.3662,1.3633,1.3675,1.3675,1.3667,1.3599,1.3581,1.3574,1.3501,1.3547,1.3543,1.354,1.3539,1.3385,1.3384,0,0,0,0,0,0,1.3816,1.3801,1.3709,1.3704,1.3766,1.3713,1.3705,1.3684,1.3633,1.3627,1.3666,1.3667,1.3588,1.3579,1.3571,1.3507,1.3542,1.3538,1.3536,1.3387,1.3385,1.3384,0,0,0,0,0,0,1.3818,1.3807,1.3712,1.3753,1.374,1.371,1.3686,1.3681,1.3663,1.3626,1.362,1.3653,1.3588,1.3577,1.3526,1.3504,1.3536,1.3532,1.3388,1.3386,1.3384,1.338,0,0,0,0,0,0,1.3822,1.3808,1.379,1.3753,1.3738,1.3671,1.3685,1.3679,1.3657,1.3657,1.3613,1.3606,1.3588,1.3533,1.3522,1.3498,1.3528,1.339,1.3387,1.3385,1.3382,1.3378,1.3375,0,0,0,0,0,1.3826,1.3789,1.3789,1.3778,1.3715,1.367,1.3661,1.3645,1.3655,1.3635,1.3612,1.3608,1.351,1.3528,1.3515,1.349,1.3391,1.3388,1.3385,1.3383,1.3379,1.3375,0,0,0,0,0,0,1.382,1.3784,1.3783,1.3734,1.3706,1.3669,1.3643,1.364,1.3605,1.3606,1.3584,1.3574,1.3524,1.3502,1.3523,1.3438,1.3451,1.3445,1.3454,1.3449,1.3446,1.345,1.3525,0,0,0,0,0,1.3814,1.3783,1.3752,1.371,1.3697,1.3673,1.3652,1.3643,1.3611,1.3597,1.357,1.3536,1.3498,1.3473,1.3435,1.338,1.3369,1.3356,1.3353,1.335,1.3344,1.3313,1.3307,1.3374,1.3374,1.3374,0,0,1.3798,1.3775,1.3755,1.3709,1.3685,1.3651,1.3662,1.3625,1.3599,1.359,1.3541,1.3521,1.3481,1.3428,1.3403,1.3408,1.3324,1.3346,1.3345,1.334,1.331,1.3303,1.3298,1.3372,1.3372,1.3373,0,0,1.3753,1.3733,1.3697,1.3675,1.3642,1.3627,1.3619,1.3583,1.357,1.3522,1.3515,1.3482,1.3417,1.339,1.3367,1.3316,1.331,1.3305,1.3285,1.3255,1.3249,1.3245,1.3225,1.3218,1.33,1.33,1.33,0,1.3736,1.3688,1.3677,1.3642,1.3621,1.3618,1.358,1.3558,1.3512,1.3496,1.3505,1.3424,1.3397,1.3338,1.3326,1.3309,1.3296,1.3308,1.3252,1.3247,1.3242,1.3223,1.3216,1.3299,1.3299,1.3299,1.3299,0,1.3669,1.3636,1.361,1.3572,1.3548,1.3511,1.3493,1.347,1.3464,1.3447,1.3398,1.3367,1.3324,1.331,1.3301,1.3249,1.3253,1.3257,1.3269,1.3235,1.3217,1.321,1.3298,1.3299,1.3299,1.3299,0,0,1.3612,1.3573,1.3564,1.3547,1.3512,1.3484,1.3448,1.341,1.339,1.336,1.3326,1.3274,1.3278,1.3253,1.3241,1.3216,1.3176,1.3222,1.3221,1.3213,1.3116,1.3112,1.3104,1.3174,1.3173,1.3172,1.3119,0,1.3562,1.35,1.3491,1.3435,1.3403,1.3402,1.3369,1.3343,1.3328,1.3296,1.3278,1.3241,1.325,1.3234,1.3209,1.3187,1.3156,1.3191,1.3139,1.3138,1.3147,1.3094,1.3089,1.3041,1.3112,1.311,1.311,0,1.3493,1.3466,1.3408,1.338,1.3366,1.3338,1.3304,1.3275,1.3245,1.3236,1.321,1.3203,1.3162,1.318,1.3122,1.3146,1.3125,1.3111,1.3109,1.3101,1.3119,1.3082,1.3025,1.3017,1.3098,1.3099,1.31,0,1.3456,1.3405,1.3364,1.335,1.3316,1.3297,1.3281,1.3253,1.3232,1.3201,1.3186,1.315,1.3129,1.31,1.3082,1.3097,1.3026,1.3042,1.3014,1.3015,1.2996,1.2997,1.2932,1.2987,1.2987,1.2988,1.2988,0,1.3398,1.3362,1.3348,1.3322,1.3281,1.3272,1.3231,1.3215,1.3192,1.3161,1.3157,1.3128,1.3108,1.3075,1.3061,1.3015,1.3006,1.2995,1.2991,1.2994,1.2995,1.2977,1.2979,1.2986,1.2986,1.2986,1.2987,0,1.3348,1.3337,1.3292,1.3267,1.326,1.3231,1.3207,1.3181,1.3168,1.3129,1.312,1.3097,1.3059,1.3041,1.2991,1.2982,1.293,1.2929,1.2941,1.2938,1.2912,1.2914,1.283,1.2818,1.2884,1.2884,1.2883,0,1.331,1.3283,1.3257,1.3239,1.3224,1.3193,1.3173,1.3163,1.3142,1.3108,1.3085,1.3049,1.3018,1.2957,1.2934,1.2896,1.2893,1.2867,1.2887,1.2891,1.289,1.2891,1.2888,1.2862,1.2861,1.2861,1.286,0,1.3244,1.3242,1.3215,1.3186,1.3164,1.3139,1.3116,1.31,1.3086,1.3061,1.3025,1.3002,1.2955,1.2917,1.288,1.286,1.2856,1.2855,1.2847,1.2847,1.2854,1.2849,1.2928,1.2856,1.2856,1.2857,1.2857,1.2857,1.3198,1.3174,1.3153,1.3123,1.3106,1.3085,1.306,1.3046,1.3017,1.298,1.2976,1.2937,1.2908,1.2858,1.2838,1.2805,1.2811,1.2798,1.2795,1.2791,1.2789,1.2863,1.2799,1.2799,1.2799,1.2799,1.2799,0,1.313,1.3118,1.3091,1.306,1.3037,1.3043,1.3017,1.2996,1.2963,1.2939,1.2912,1.287,1.2834,1.2811,1.2774,1.2752,1.275,1.2743,1.2742,1.2738,1.2787,1.2798,1.2745,1.2745,1.2745,1.2746,1.2746,1.2746,1.3092,1.3052,1.3048,1.3,1.2987,1.2952,1.2937,1.2917,1.2898,1.2853,1.2826,1.2813,1.2789,1.2751,1.2718,1.2712,1.2697,1.269,1.2683,1.2729,1.2734,1.2739,1.2749,1.2687,1.2687,1.2636,1.2636,1.2635]}]]